Miscellaneous Local Product
Issued by NWS Hastings, NE

Home | Current Version | Previous Version | Graphics & Text | Print | Product List | Glossary On
Versions: 1 2 3 4 5 6 7 8 9 10 11 12 13 14 15 16 17 18 19 20 21 22 23 24 25 26 27 28 29 30 31 32 33 34 35 36 37 38 39 40 41 42 43 44 45 46 47 48 49 50
000
AXUS43 KGID 210802
MISGRI

GID CWA HOURLY WEATHER ROUNDUP
NATIONAL WEATHER SERVICE HASTINGS NE
300 AM CDT WED JUN 21 2017

NOTE: "FAIR" INDICATES FEW OR NO CLOUDS BELOW 12,000 FEET WITH NO
SIGNIFICANT WEATHER AND/OR OBSTRUCTIONS TO VISIBILITY.

...SOUTH CENTRAL NEBRASKA...

CITY           SKY/WX    TMP DP  RH WIND       PRES   REMARKS
GRAND ISLAND   CLEAR     70  65  84 S8        29.85F
HASTINGS       CLEAR     71  62  73 S8        29.88F
KEARNEY        CLEAR     70  63  78 S9        29.87F
ORD            CLEAR     69  55  60 SE6       29.83F
YORK           CLEAR     72  63  73 S7        29.85F
AURORA         CLOUDY    71  64  78 S6        29.85F
LEXINGTON      CLEAR     69  64  85 S7        29.87F
HOLDREGE       CLOUDY    70  64  80 S10       29.90R
HEBRON         PTCLDY    72  64  76 CALM      29.87S

...NEBRASKA PANHANDLE...

CITY           SKY/WX    TMP DP  RH WIND       PRES   REMARKS
CHADRON        CLEAR     67  48  50 N5        29.81F
ALLIANCE       CLEAR     62  49  62 SW3       29.87F
SCOTTSBLUFF    CLEAR     64  52  64 NW6       29.90F
SIDNEY         CLEAR     65  51  60 SW9       29.94F

...WESTERN AND NORTH CENTRAL NEBRASKA...

CITY           SKY/WX    TMP DP  RH WIND       PRES   REMARKS
VALENTINE      PTCLDY    68  50  52 NE5       29.80F
AINSWORTH      CLEAR     70  59  69 S6        29.80F
ONEILL         CLEAR     66  54  63 SE9       29.83F
BROKEN BOW     CLEAR     68  62  81 S5        29.85F
IMPERIAL       CLOUDY    83  47  28 SW16G24   29.84F
NORTH PLATTE   PTCLDY    67  64  90 E7        29.84F
MCCOOK         CLOUDY    66  64  93 S7        29.86F

...EASTERN NEBRASKA...

CITY           SKY/WX    TMP DP  RH WIND       PRES   REMARKS
NORFOLK        CLEAR     66  55  67 E7        29.85F
SO SIOUX CITY  CLEAR     66  54  65 E9        29.86F
TEKAMAH        CLEAR     64  55  72 N3        29.86F
COLUMBUS       CLEAR     66  58  75 E7        29.84F
ALBION         CLEAR     67  54  61 E6        29.84F
OMAHA EPPLEY   CLEAR     72  55  55 SE10      29.86S
OFFUTT AFB     CLEAR     70  57  65 SE3       29.85S
MILLARD        CLEAR     73  59  62 SE6       29.85F
LINCOLN        CLEAR     72  64  76 SE6       29.84F
NEBRASKA CITY  CLEAR     69  66  90 CALM      29.86S
BEATRICE       CLOUDY    75  65  70 S8        29.86F
FALLS CITY     CLEAR     75  67  76 S9        29.85F

...NORTHERN KANSAS...

CITY           SKY/WX    TMP DP  RH WIND       PRES   REMARKS
GOODLAND       TSTM      67  60  78 S29G40    30.00F
HILL CITY      CLOUDY    67  65  93 S5        29.89F
NORTON         SUNNY     64  59  82 CALM      29.92R
PHILLIPSBURG   CLEAR     70  64  83 SE3       29.89S
SMITH CENTER   CLEAR     66  63  88 SE9       29.89S
HAYS           PTCLDY    68  62  81 S8        29.91F
RUSSELL        PTCLDY    74  61  63 S12       29.89S
CONCORDIA      CLOUDY    77  60  55 S15       29.87S
SALINA         PTCLDY    77  61  57 S9        29.89F
TOPEKA         CLOUDY    78  67  68 SW6       29.91R



USA.gov is the U.S. government's official web portal to all federal, state and local government web resources and services.